[[{"header":{"parameterUnit":"m.s-1","parameterCategory":1,"la1":30.2991,"la2":30.254,"lo1":-89.0895,"lo2":-89.0444,"dy":0.0017,"dx":0.0017,"nx":28,"ny":28,"refTime":"2024-07-16T03:00:00:Z","depth":0,"parameterNumber":2,"parameterNumberName":"U-component_of_WINDS"},"data":[0,0,0,0,0,0,0,0,0,0,0,0,0,0,0,0,0,0,0,0,0,0,0,0,0,0,0,0,0,0,0,0,0,0,0,0,0,0,0,0,0,0,0,0,0,0,0,0,0,0,0,0,0,0,0,0,0,0,2.1982,2.1983,0,2.2016,2.2017,2.2017,2.2045,2.2046,2.2046,2.2046,2.208,2.208,2.2081,0,0,0,0,0,0,0,0,0,0,0,0,0,2.1941,2.1942,2.1982,2.1983,2.1983,2.2016,2.2017,2.2017,2.2045,2.2046,2.2046,2.2046,2.208,2.208,2.2081,0,0,0,0,0,0,0,0,0,0,0,0,0,2.1965,2.1942,2.1982,2.2001,2.2003,2.2016,2.2017,2.2017,2.2045,2.2046,2.2046,2.2047,2.2079,2.208,2.2081,2.2078,0,0,2.2084,2.2084,0,0,0,0,0,0,0,0,2.1964,2.1967,2.1998,2.2,2.2002,2.2027,2.2015,2.2038,2.2045,2.2029,2.2046,2.2047,2.2062,2.2064,2.207,2.2079,2.2081,2.2084,2.2084,2.2085,2.2085,0,0,0,0,0,0,0,2.1962,2.1965,2.1996,2.1998,2.2001,2.2008,2.2012,2.2019,2.2042,2.2031,2.2033,2.2037,2.2063,2.2069,2.207,2.2081,2.2084,2.2085,2.2085,2.2086,2.209,2.209,0,0,0,0,0,0,2.1958,2.1964,2.1995,2.1997,2.1984,2.2008,2.2013,2.2019,2.2043,2.2047,2.2036,2.2038,2.2067,2.2069,2.2072,2.207,2.2085,2.2086,2.2086,2.2091,2.209,2.209,0,0,0,0,0,0,2.1957,2.196,2.1993,2.1981,2.1986,2.2008,2.2015,2.2019,2.2025,2.2047,2.2051,2.2038,2.2067,2.207,2.2076,2.2071,2.2086,2.2087,2.2091,2.2091,2.209,2.2065,0,0,0,0,0,0,2.1955,2.196,2.1959,2.1981,2.1986,2.1997,2.2015,2.2019,2.2026,2.2029,2.2049,2.2053,2.2068,2.2075,2.2077,2.2073,2.2088,2.2092,2.2091,2.209,2.2067,2.2064,2.2062,0,0,0,0,0,2.1954,2.195,2.1958,2.1962,2.1986,2.1997,2.2,2.2018,2.2026,2.2025,2.2039,2.2052,2.2072,2.2075,2.2078,2.2074,2.2092,2.2091,2.209,2.2068,2.2064,2.2062,0,0,0,0,0,0,2.1926,2.1953,2.1963,2.1966,2.1979,2.2002,2.2001,2.2014,2.2024,2.2026,2.2047,2.2052,2.2055,2.2065,2.2069,2.2072,2.2084,2.2083,2.2065,2.2062,2.206,2.2057,2.2088,0,0,0,0,0,2.192,2.1927,2.1951,2.1951,2.1957,2.1978,2.1984,2.1996,2.201,2.2016,2.2031,2.2044,2.2053,2.2058,2.2068,2.2068,2.2073,2.2067,2.2065,2.2062,2.2062,2.2063,2.2061,2.2087,2.2087,2.2087,0,0,2.1908,2.1924,2.1927,2.1946,2.1957,2.1964,2.1982,2.1989,2.1994,2.2017,2.2023,2.2035,2.2051,2.2054,2.2056,2.2062,2.2056,2.2061,2.2059,2.206,2.2062,2.206,2.2057,2.2086,2.2086,2.2086,0,0,2.1889,2.1902,2.1904,2.1916,2.1934,2.1948,2.1948,2.1969,2.1978,2.1985,2.2002,2.2009,2.2024,2.2035,2.2042,2.2029,2.2042,2.2032,2.2018,2.202,2.2018,2.2016,2.2012,2.201,2.2031,2.2031,2.2031,0,2.1872,2.1884,2.1903,2.1909,2.1917,2.1939,2.1941,2.1951,2.1971,2.1976,2.1983,2.2003,2.2015,2.2022,2.2019,2.2024,2.2025,2.2029,2.2017,2.2015,2.2014,2.201,2.2008,2.203,2.203,2.203,2.203,0,2.1861,2.1869,2.1869,2.1888,2.1896,2.19,2.192,2.1926,2.1938,2.1952,2.1959,2.1975,2.1988,2.1991,2.2002,2.1999,2.2002,2.2013,2.2024,2.201,2.2006,2.2005,2.2028,2.2028,2.2029,2.2029,0,0,2.1825,2.1857,2.1856,2.1866,2.1887,2.1894,2.1899,2.1913,2.1917,2.193,2.1935,2.1948,2.1958,2.1966,2.198,2.1981,2.197,2.1991,2.1992,2.1987,2.1968,2.196,2.1958,2.1979,2.1978,2.1978,2.1967,0,2.1811,2.1821,2.184,2.1845,2.1853,2.1874,2.1878,2.1892,2.1905,2.1913,2.1927,2.1936,2.1948,2.1954,2.1956,2.1971,2.1967,2.1972,2.1983,2.1983,2.1978,2.1956,2.1948,2.1936,2.1965,2.1965,2.1965,0,2.1795,2.1807,2.1813,2.1835,2.1839,2.1843,2.1857,2.1865,2.1881,2.1891,2.1901,2.1915,2.1922,2.1933,2.1943,2.1946,2.1952,2.196,2.196,2.1961,2.1973,2.1957,2.1932,2.193,2.1963,2.1963,2.1963,0,2.1768,2.1787,2.1793,2.18,2.1826,2.1828,2.1839,2.1855,2.1863,2.1876,2.1881,2.1894,2.1901,2.191,2.1928,2.1935,2.1936,2.1949,2.1944,2.1943,2.1943,2.1943,2.1919,2.1947,2.1947,2.1947,2.1947,0,2.1749,2.1752,2.1781,2.1785,2.1789,2.181,2.1813,2.1826,2.1841,2.1847,2.1866,2.1872,2.1896,2.1904,2.1918,2.1924,2.1927,2.1935,2.1938,2.1933,2.1932,2.1937,2.1938,2.1946,2.1946,2.1947,2.1947,0,2.172,2.174,2.1748,2.1772,2.1778,2.178,2.18,2.1805,2.1819,2.1827,2.183,2.1853,2.1864,2.1883,2.1899,2.1909,2.1912,2.1918,2.1906,2.1909,2.1903,2.1903,2.1881,2.1879,2.1908,2.1908,2.1908,0,2.1707,2.171,2.1734,2.1741,2.1751,2.176,2.1768,2.179,2.1797,2.1816,2.1818,2.1831,2.1842,2.1859,2.1876,2.1889,2.1896,2.1887,2.1898,2.1892,2.1896,2.1895,2.1896,2.1885,2.1884,2.1884,2.1884,0,2.1682,2.1691,2.1702,2.1717,2.1726,2.1739,2.1752,2.1756,2.178,2.1787,2.1799,2.1808,2.1825,2.1837,2.1853,2.1864,2.1878,2.188,2.188,2.1874,2.1867,2.1871,2.19,2.1881,2.1881,2.1881,2.1881,2.1881,2.166,2.1664,2.1682,2.1694,2.1706,2.1719,2.1724,2.174,2.175,2.1766,2.1778,2.1789,2.1806,2.1828,2.1838,2.1847,2.1854,2.1853,2.1853,2.1852,2.185,2.1866,2.185,2.185,2.185,2.1851,2.1851,0,2.1636,2.1649,2.166,2.1678,2.1687,2.1701,2.1716,2.1723,2.1733,2.1747,2.1759,2.1772,2.1785,2.1804,2.1817,2.1821,2.1828,2.1824,2.1824,2.1826,2.1844,2.1843,2.1818,2.1818,2.1818,2.1818,2.1818,2.1818,2.1624,2.1631,2.1644,2.1657,2.167,2.1682,2.169,2.1701,2.1713,2.1728,2.1738,2.1751,2.1768,2.1783,2.1795,2.18,2.1804,2.1798,2.1805,2.1822,2.1825,2.1827,2.1827,2.1799,2.1799,2.1787,2.1787,2.1787]},{"header":{"parameterUnit":"m.s-1","parameterCategory":1,"la1":30.2991,"la2":30.254,"lo1":-89.0895,"lo2":-89.0444,"dy":0.0017,"dx":0.0017,"nx":28,"ny":28,"refTime":"2024-07-16T03:00:00:Z","depth":0,"parameterNumber":3,"parameterNumberName":"V-component_of_WINDS"},"data":[0,0,0,0,0,0,0,0,0,0,0,0,0,0,0,0,0,0,0,0,0,0,0,0,0,0,0,0,0,0,0,0,0,0,0,0,0,0,0,0,0,0,0,0,0,0,0,0,0,0,0,0,0,0,0,0,0,0,0.7529,0.7529,0,0.7482,0.7482,0.7481,0.7463,0.7463,0.7463,0.7463,0.7413,0.7412,0.741,0,0,0,0,0,0,0,0,0,0,0,0,0,0.7603,0.7601,0.753,0.7529,0.7528,0.7482,0.7482,0.7481,0.7463,0.7463,0.7463,0.7463,0.7413,0.7412,0.741,0,0,0,0,0,0,0,0,0,0,0,0,0,0.7565,0.7601,0.753,0.7514,0.7512,0.7482,0.7481,0.7481,0.7463,0.7463,0.7463,0.7463,0.7414,0.7412,0.741,0.7392,0,0,0.7403,0.7402,0,0,0,0,0,0,0,0,0.7567,0.7562,0.7517,0.7515,0.7513,0.7479,0.7489,0.7451,0.7463,0.7481,0.7463,0.7463,0.7434,0.7431,0.7421,0.739,0.7388,0.7403,0.7401,0.7401,0.74,0,0,0,0,0,0,0,0.757,0.7564,0.7511,0.7516,0.7513,0.7508,0.7503,0.7482,0.7457,0.748,0.7478,0.7473,0.7433,0.7423,0.742,0.7387,0.7403,0.7401,0.74,0.7399,0.7338,0.7338,0,0,0,0,0,0,0.7575,0.7566,0.7512,0.7509,0.7541,0.7507,0.7501,0.7489,0.7457,0.7453,0.7473,0.7472,0.7427,0.7422,0.7418,0.7395,0.7401,0.7399,0.7397,0.7339,0.7338,0.7338,0,0,0,0,0,0,0.7577,0.757,0.7514,0.7537,0.753,0.7505,0.7492,0.7488,0.7478,0.7452,0.7448,0.7467,0.7427,0.7421,0.7399,0.7393,0.7398,0.7396,0.7339,0.7339,0.7338,0.735,0,0,0,0,0,0,0.7579,0.7571,0.7564,0.7537,0.7529,0.7496,0.7492,0.7487,0.7475,0.7473,0.7446,0.7441,0.7427,0.7402,0.7397,0.739,0.7394,0.7339,0.7339,0.7338,0.735,0.735,0.735,0,0,0,0,0,0.7582,0.7569,0.7564,0.7558,0.752,0.7496,0.7491,0.7475,0.7474,0.7467,0.7451,0.7442,0.7395,0.74,0.7394,0.7387,0.734,0.7339,0.7338,0.735,0.735,0.735,0,0,0,0,0,0,0.7596,0.7565,0.7559,0.7538,0.752,0.7493,0.7483,0.7475,0.7456,0.7456,0.7436,0.743,0.7409,0.7396,0.7402,0.7368,0.7367,0.7365,0.7377,0.7377,0.7377,0.7381,0.7392,0,0,0,0,0,0.7596,0.758,0.7554,0.7538,0.7529,0.7508,0.7497,0.7486,0.7466,0.7458,0.7439,0.742,0.7401,0.7388,0.7369,0.7348,0.7341,0.734,0.734,0.734,0.7338,0.7326,0.7325,0.7336,0.7336,0.7336,0,0,0.7597,0.7579,0.7569,0.754,0.7524,0.7507,0.7501,0.7483,0.747,0.7455,0.7433,0.7419,0.7395,0.7374,0.7363,0.7362,0.7334,0.7339,0.734,0.7338,0.7325,0.7324,0.7323,0.7336,0.7336,0.7336,0,0,0.7591,0.7575,0.756,0.7544,0.7521,0.7507,0.7504,0.7478,0.7468,0.7446,0.7434,0.7418,0.7385,0.7369,0.7357,0.7344,0.7336,0.7339,0.7339,0.7327,0.7326,0.7325,0.732,0.7319,0.7337,0.7337,0.7337,0,0.7595,0.7569,0.7553,0.7535,0.7523,0.7509,0.7493,0.7479,0.745,0.7441,0.7441,0.7399,0.7383,0.7357,0.7354,0.7344,0.7339,0.7342,0.7328,0.7326,0.7325,0.7321,0.7319,0.7338,0.7338,0.7338,0.7338,0,0.7575,0.7557,0.7547,0.7521,0.7507,0.7491,0.7472,0.7459,0.745,0.7436,0.7414,0.7393,0.737,0.7363,0.7353,0.7336,0.7336,0.7331,0.733,0.7325,0.732,0.7318,0.7338,0.7338,0.7338,0.7338,0,0,0.7575,0.754,0.7537,0.7525,0.7498,0.7484,0.7467,0.7445,0.7434,0.7415,0.74,0.7373,0.7369,0.7355,0.7343,0.7333,0.7325,0.733,0.7329,0.733,0.7304,0.7307,0.7305,0.7319,0.7319,0.7318,0.7306,0,0.7564,0.7534,0.7519,0.7494,0.7477,0.7464,0.7449,0.7431,0.7418,0.7401,0.7386,0.7367,0.7364,0.7355,0.7344,0.7328,0.7319,0.7329,0.7304,0.7304,0.731,0.7303,0.7306,0.7295,0.7304,0.7303,0.7303,0,0.7548,0.7529,0.7503,0.7479,0.7472,0.7458,0.7437,0.7421,0.7401,0.7392,0.7376,0.7365,0.7346,0.7346,0.732,0.7327,0.7316,0.7306,0.7305,0.7302,0.7303,0.7299,0.7291,0.7289,0.73,0.73,0.73,0,0.755,0.7519,0.7499,0.7489,0.7461,0.7452,0.7439,0.7419,0.7406,0.7387,0.7379,0.7358,0.7346,0.733,0.7313,0.7315,0.7288,0.7287,0.728,0.728,0.7274,0.7275,0.7264,0.7268,0.7268,0.7268,0.7268,0,0.754,0.7524,0.75,0.7488,0.747,0.7453,0.7436,0.7422,0.7404,0.7389,0.7376,0.7362,0.7341,0.7325,0.7311,0.7291,0.7286,0.7278,0.7275,0.7279,0.728,0.7271,0.7271,0.7268,0.7268,0.7268,0.7268,0,0.7539,0.7523,0.75,0.7475,0.7469,0.7457,0.7435,0.7422,0.7409,0.739,0.7384,0.7362,0.7342,0.7324,0.7297,0.7288,0.7267,0.7263,0.7274,0.7272,0.7266,0.7267,0.7249,0.7246,0.7253,0.7253,0.7253,0,0.7533,0.7521,0.7495,0.7484,0.7472,0.7455,0.7442,0.7425,0.7412,0.7388,0.7379,0.7357,0.7339,0.7307,0.7289,0.7268,0.7263,0.7258,0.726,0.7265,0.7263,0.7264,0.7262,0.7258,0.7258,0.7258,0.7258,0,0.7525,0.7517,0.75,0.748,0.7465,0.7448,0.7431,0.7423,0.7402,0.7389,0.7368,0.7354,0.7327,0.7306,0.7283,0.7269,0.726,0.7258,0.7255,0.7259,0.7266,0.7262,0.7274,0.7258,0.7258,0.7258,0.7258,0.7258,0.7521,0.751,0.749,0.7471,0.7456,0.7441,0.7428,0.7413,0.7395,0.7372,0.7363,0.7342,0.7321,0.729,0.7276,0.7259,0.7258,0.7254,0.7253,0.7252,0.7252,0.727,0.7255,0.7255,0.7255,0.7255,0.7255,0,0.7512,0.7498,0.7481,0.7458,0.7443,0.7436,0.7417,0.7405,0.7386,0.7368,0.7351,0.7327,0.7307,0.7287,0.7266,0.7256,0.7251,0.7251,0.7251,0.7248,0.7255,0.726,0.7255,0.7255,0.7255,0.7255,0.7255,0.7255,0.7505,0.7486,0.7476,0.7449,0.7435,0.7415,0.7404,0.739,0.7375,0.7349,0.7333,0.732,0.7301,0.7278,0.7259,0.7254,0.7246,0.7247,0.7241,0.7247,0.7248,0.7248,0.7252,0.7246,0.7246,0.7235,0.7235,0.7235]}]]